Regional Weather Roundup
Issued by NWS

Home | Current Version | Previous Version | Graphics & Text | Print | Product List | Glossary On
Versions: 1 2 3 4 5 6 7 8 9 10 11 12 13 14 15 16 17 18 19 20 21 22 23 24 25 26 27 28 29 30 31 32 33 34 35 36 37 38 39 40 41 42 43 44 45 46 47 48 49 50
000
ASUS43 KMPX 230201
RWRMN
WEATHER ROUNDUP FOR MINNESOTA
NATIONAL WEATHER SERVICE TWIN CITIES/CHANHASSEN MN
800 PM CST THU FEB 22 2018


NOTE: "FAIR" INDICATES FEW OR NO CLOUDS BELOW 12,000 FEET WITH NO
SIGNIFICANT WEATHER AND/OR OBSTRUCTIONS TO VISIBILITY. N/A MEANS
CURRENT SKY AND/OR WEATHER CONDITIONS ARE NOT AVAILABLE.

MNZ060>063-068>070-230300-
   Twin Cities Metro

CITY           SKY/WX    TMP DP  RH WIND       PRES   REMARKS
TWIN CITIES    LGT SNOW  26  25  96 E12       30.28F FOG     WCI  16
ST PAUL        LGT SNOW  26  24  92 E9        30.30F FOG     WCI  17
CRYSTAL        LGT SNOW  25  22  88 E9        30.28F FOG     WCI  15
BLAINE         LGT SNOW  27  23  86 E12       30.28F VSB 1   WCI  16
LAKEVILLE      LGT SNOW  25  25 100 E12       30.26F WCI  14
EDEN PRAIRIE   LGT SNOW  26  22  84 E10       30.26F VSB 1   WCI  16
SOUTH ST PAUL  LGT SNOW  27  24  91 E9        30.29F WCI  17
LAKE ELMO      LGT SNOW  27  25  93 E12       30.30F WCI  16
$$
MNZ001>005-007-008-013>017-022>024-027-028-230300-
   Northwest Minnesota

CITY           SKY/WX    TMP DP  RH WIND       PRES   REMARKS
BEMIDJI        CLOUDY    22   7  53 SE9       30.28F WCI  11
HALLOCK        FAIR       7   3  85 SE7       30.29S WCI  -5
ROSEAU         FAIR      10   5  79 S5        30.28F WCI   2
WARROAD        FAIR      12   7  79 CALM      30.28F
THIEF RVR FALL CLOUDY    17   9  70 CALM      30.28F
CROOKSTON      MOCLDY    14  10  85 CALM      30.30S
FOSSTON        FAIR      19   9  63 SE6       30.27F WCI  11
DETROIT LAKES  LGT SNOW  21  19  93 SE6       30.27F WCI  14
MOORHEAD       MIX PCPN  21  18  86 SE7       30.28F WCI  13
PARK RAPIDS    LGT SNOW  20  15  81 SE6       30.27F WCI  12
MAHNOMEN       CLOUDY    23   8  52 SE10      30.26F WCI  12
$$
MNZ006-009>011-018-025>026-230300-
   North Central Minnesota

CITY           SKY/WX    TMP DP  RH WIND       PRES   REMARKS
BAUDETTE       FAIR      18   2  49 SE7       30.27F WCI   9
FLAG ISLAND    FAIR       9   3  78 SE6       30.28F WCI  -1
INTL FALLS     CLOUDY    25   5  42 CALM      30.31F
WASKISH        FAIR      19   3  49 SE3       30.29F
BIG FORK       FAIR      25   5  42 SE6       30.30F WCI  18
LONGVILLE      CLOUDY    21  12  68 E3        30.30F
GRAND RAPIDS   FLURRIES  23  10  57 SE7       30.33F WCI  15
CRANE LAKE     FAIR      25   3  39 CALM      30.36F
ORR            FAIR      25   3  39 SE5       30.30F WCI  19
COOK             N/A     25  10  54 SE6       30.34F WCI  18
WALKER         FLURRIES  21   9  58 SE5       30.29F WCI  15
$$
MNZ012-019>021-037-230300-
   Northeast Minnesota

CITY           SKY/WX    TMP DP  RH WIND       PRES   REMARKS
DULUTH         CLOUDY    21  13  71 E8        30.34F WCI  11
ELY            CLOUDY    21   9  58 S5        30.35F WCI  15
HIBBING        CLOUDY    22   9  57 SE7       30.33F WCI  13
EVELETH        CLOUDY    23   9  54 CALM      30.36F
DULUTH HARBOR  CLOUDY    25  19  80 E10       30.41F WCI  15
TWO HARBORS    FAIR      25  14  63 NE7       30.37F WCI  17
GRAND MARAIS     N/A     21  12  68 N3        30.45F
G MARAIS ARPRT CLOUDY    14   9  79 CALM      30.36F
$$
MNZ029>031-032-039>041-046>048-054>057-064-230300-
   West Central Minnesota

CITY           SKY/WX    TMP DP  RH WIND       PRES   REMARKS
FERGUS FALLS   LGT SNOW  21  18  86 E9        30.26F WCI  11
WHEATON        LGT SNOW  21  19  93 E7        30.27F WCI  13
MORRIS         LGT SNOW  21  21 100 E13       30.23F WCI   9
ALEXANDRIA     LGT SNOW  20  18  92 E9        30.24F VSB 3/4 WCI   9
ELBOW LAKE     LGT SNOW  21  19  94 E10       30.25F WCI  10
WADENA         LGT SNOW  19  16  86 E7        30.27F WCI  10
GLENWOOD       LGT SNOW  19  19 100 E15       30.24S VSB 1   WCI   5
APPLETON       LGT SNOW  25  21  86 E12G18    30.23F WCI  14
BENSON         MIX PCPN  23  19  86 SE8       30.25F WCI  14
MADISON        LGT SNOW  27  25  93 E9        30.23F WCI  17
WILLMAR        CLOUDY    21  19  93 E12       30.26F VSB 1   WCI   9
$$
MNZ033>034-036-042>043-049>051-058-059-230300-
   Central Minnesota

CITY           SKY/WX    TMP DP  RH WIND       PRES   REMARKS
ST CLOUD       LGT SNOW  21  19  92 E9        30.27F VSB 1   WCI  11
SAUK CENTRE    LGT SNOW  19  17  91 E13       30.25F WCI   7
PAYNESVILLE    LGT SNOW  22  21  96 E9G17     30.26F VSB 1   WCI  12
AITKIN         MOCLDY    19  12  73 CALM      30.32F
PINE RIVER     LGT SNOW  18  14  86 E5        30.33F WCI  11
BRAINERD       SNOW      20  16  84 E6        30.30F VSB 1/2 WCI  12
STAPLES        MIX PCPN  19  18  93 E7        30.28F WCI  10
LONG PRAIRIE   LGT SNOW  19  18  93 NE9       30.27S WCI   9
LITTLE FALLS   LGT SNOW  21  16  79 E5        30.29F WCI  15
LITCHFIELD     LGT SNOW  25  23  93 E8        30.26F WCI  16
BUFFALO        LGT SNOW  24  21  87 NE9       30.28F WCI  14
MAPLE LAKE     LGT SNOW  24  23  93 E12       30.27F VSB 1   WCI  13
HUTCHINSON     LGT SNOW  25  24  94 NE12      30.25F WCI  14
$$
MNZ037-044-045-052-053-230300-
   East Central Minnesota

CITY           SKY/WX    TMP DP  RH WIND       PRES   REMARKS
PRINCETON      LGT SNOW  25  19  80 NE6       30.30F WCI  18
CAMBRIDGE      LGT SNOW  27  18  69 E6        30.32F WCI  20
RUSH CITY      LGT SNOW  24  20  82 E6        30.33F WCI  17
MOOSE LAKE     LGT SNOW  23  14  68 NE6       30.33F WCI  16
HINCKLEY       LGT SNOW  25  23  93 E6        30.33F WCI  18
CLOQUET        CLOUDY    19  12  73 E3        30.34F
MCGREGOR       CLOUDY    27  12  54 SE6       30.33F WCI  20
$$
MNZ071>073-080-081-089-090-097-098-230300-
   Southwest Minnesota

CITY           SKY/WX    TMP DP  RH WIND       PRES   REMARKS
MONTEVIDEO     LGT SNOW  23  21  93 SE13      30.22F VSB 1   WCI  11
GRANITE FALLS  LGT SNOW  25  23  93 E12       30.24F VSB 1   WCI  14
CANBY          LGT SNOW  25  24  96 SE9       30.22F VSB 3/4 WCI  15
MARSHALL       LGT SNOW  23  21  92 E10       30.21S FOG     WCI  12
REDWOOD FALLS  LGT SNOW  24  23  96 E10       30.23F FOG     WCI  14
OLIVIA         LGT SNOW  27  23  86 E8        30.24F WCI  18
PIPESTONE      LGT SNOW  21  19  93 E7        30.16S WCI  13
WORTHINGTON    LGT SNOW  25  24  96 SE6       30.17F FOG     WCI  18
JACKSON        LGT SNOW  28  27  93 SE9       30.17F WCI  20
TRACY          LGT SNOW  24  24  98 E8        30.19F WCI  16
SLAYTON        LGT SNOW  25  24  96 E8        30.17F WCI  16
$$
MNZ065>067-074>077-082>085-091>093-230300-
   South Central Minnesota

CITY           SKY/WX    TMP DP  RH WIND       PRES   REMARKS
MANKATO        FLURRIES  26  24  92 E17       30.23S WCI  13
NEW ULM        LGT SNOW  25  23  93 E9        30.23S WCI  15
ST JAMES       MIX PCPN  27  27 100 E15       30.21F WCI  15
FAIRMONT       MIX PCPN  28  26  92 SE15      30.20F WCI  16
GLENCOE        LGT SNOW  26  26 100 E8        30.24F WCI  17
FARIBAULT      MIX PCPN  27  23  86 E13       30.24F WCI  16
OWATONNA       LGT SNOW  27  25  93 E18       30.22F WCI  13
WASECA         MIX PCPN  27  23  86 E16       30.23F WCI  14
ALBERT LEA     MIX PCPN  27  25  93 SE15      30.20F WCI  15
$$
MNZ078>079-086>088-094>096-230300-
   Southeast Minnesota

CITY           SKY/WX    TMP DP  RH WIND       PRES   REMARKS
ROCHESTER      CLOUDY    25  24  96 E15       30.24F WCI  13
RED WING       LGT SNOW  27  21  80 E8        30.30F WCI  18
STANTON        LGT SNOW  28  24  88 E15       30.26F WCI  16
DODGE CENTER   FAIR      25  23  93 E15       30.23F WCI  12
WINONA         CLOUDY    30  28  93 SE12      30.32F FOG     WCI  21
AUSTIN         MIX PCPN  27  23  86 E12       30.23F WCI  16
PRESTON        CLOUDY    26  24  92 E9        30.27F FOG     WCI  16
$$
ABBREVIATIONS USED IN REMARKS
   TC - TEMPERATURES IN CELSIUS
  WCI - WIND CHILL INDEX
   HX - HEAT INDEX
  VSB - VISIBILITY
$$




USA.gov is the U.S. government's official web portal to all federal, state and local government web resources and services.